www.pogodaiklimat.ru

Погода и климат >> Архив погоды >> Ангола >> Luanda


ПОГОДА в Luanda

  • Прогноз погоды в Luanda
  • Монитор погоды в Luanda
  • Климат города

АРХИВ ПОГОДЫ в Luanda

Время (UTC), дата Ветер
(напр.,м/с)
 
Видим.   Явления Облачность Т
(С)
Тd
(С)
f
(%)
Тe
(С)
Тes
(С)
Комфортность P
(гПа)
Po
(гПа)
Тmin
(С)
Tmax
(С)
R
(мм)
R24
(мм)
S
(см)
06 12.12 В 2 7000 м 9/3 600 м
[Cu med, cong Ac trans]
+25.7 +22.7 84 +34 +35 очень
душно
1010.8 1011.0 +24.8 +30.9
09 12.12 ЮЗ 1 10 км 9/9 660 м
[Sc Ac trans]
+29.4 +22.1 65 +38 +40 очень
душно
1011.2 1011.0
12 12.12 З 2 10 км 8/3 660 м
[Cu med, cong Ac trans]
+29.3 +23.5 71 +40 +48 очень
душно
1009.5 1010.0
03 13.12 З 2 10 км 9/9 600 м
[Cu Sc]
+25.8 +22.9 84 +34 +34 очень
душно
1011.2 1011.0
06 13.12 Ю 3 8000 м 3/1 540 м
[Cu hum Ac trans Ci fib]
+26.2 +22.9 82 +35 +36 очень
душно
1011.5 1012.0 +25.4
18 13.12 ЮЗ 6 10 км 8/1 600 м
[Cb calv Ac trans]
+27.0 +23.0 79 +36 +36 очень
душно
1009.1 1009.0 +31.2
21 13.12 Ю 3 10 км 5/5 660 м
[Sc]
+26.7 +23.0 80 +36 +36 очень
душно
1011.7 1012.0
06 14.12 Ю 3 8000 м 9/9 540 м
[Cu Sc]
+26.2 +22.1 78 +34 +34 очень
душно
1012.6 1013.0 +25.7
09 14.12 СВ 2 10 км 5/5 600 м
[Cu med, cong]
+30.2 +21.7 60 +38 +46 очень
душно
1013.3 1013.0
12 14.12 СЗ 3 10 км 6/3 660 м
[Cu med, cong Ac trans]
+31.3 +20.7 53 +38 +47 очень
душно
1011.5 1012.0
15 14.12 З 2 10 км 5/3 660 м
[Cu med, cong Ac trans]
+28.1 +23.2 75 +38 +42 очень
душно
1009.3 1009.0
18 14.12 ЮЗ 4 10 км 6/3 600 м
[Cu med, cong Ac trans]
+26.7 +22.6 78 +35 +35 очень
душно
1009.9 1010.0 +31.9
00 15.12 Ю 3 10 км 5/3 600 м
[Cu hum Ac trans]
+25.6 +22.9 85 +34 +34 очень
душно
1010.6 1011.0
18 15.12 ЮЗ 4 10 км 4/1 540 м
[Sc Ac trans]
+26.8 +22.2 76 +35 +35 очень
душно
1008.1 1008.0 +32.1
21 15.12 Ю 4 9000 м 8/1 540 м
[Cu hum Ac trans]
+22.5 +22.7 100 +30 +30 очень
душно
1010.8 1011.0
03 16.12 Ю 3 8000 м {морось} 9/1 540 м
[Cu hum Ac trans]
+25.2 +22.2 83 +33 +33 очень
душно
1009.4 1009.0
09 16.12 Ю 2 10 км 5/3 600 м
[Cu hum Ac trans]
+29.4 +20.7 60 +37 +45 очень
душно
1011.9 1012.0
12 16.12 З 5 10 км 4/4 660 м
[Sc Ci fib]
+30.7 +21.4 58 +39 +46 очень
душно
1008.7 1009.0
15 16.12 З 5 10 км 9/8 600 м
[Cu Sc Ci fib]
+29.1 +21.9 65 +37 +38 очень
душно
1006.7 1007.0
18 16.12 Ю 6 10 км 4/4 660 м
[Sc]
+25.8 +20.6 73 +32 +32 очень
душно
1007.6 1008.0 +31.7
03 17.12 ЮВ 3 8000 м 8/3 600 м
[Cu med, cong Ac trans]
+24.8 +21.8 83 +32 +32 очень
душно
1009.9 1010.0
06 17.12 ЮВ 3 3000 м 8/3 600 м
[Cu hum Ac trans]
+24.9 +21.8 83 +32 +32 очень
душно
1010.8 1011.0 +24.6 +31.7
09 17.12 ЮВ 3 10 км 6/6 700 м
[Cu med, cong Ci fib]
+30.5 +21.5 59 +39 +44 очень
душно
1010.5 1011.0
21 17.12 Ю 5 10 км 4/4 660 м
[Sc]
+25.5 +22.7 85 +34 +34 очень
душно
1011.7 1012.0
06 18.12 Ю 3 8000 м 9/9 600 м
[Cu Sc]
+25.7 +22.3 82 +34 +34 очень
душно
1011.3 1011.0

 

Местоположение метеостанции Luanda (Ангола): широта -8.86 долгота 13.23 высота над уровнем моря 70 м.

В архиве по умолчанию представлена погода в Luanda за последнюю неделю. Архивные данные за месяц целиком и за предыдущие месяцы, начиная с января 2011 года, Вы можете получить, выбрав интересующий диапазон дат из раскрывающегося списка и нажав кнопку "Ввод!".

Внимание! Время в таблицах - всемирное. Для получения местного времени необходимо прибавить поправку, которая в Luanda равна 1 ч.

Смотрите также архив погоды в соседних городах и на ближайших метеорологических станциях:

Погода в N`zeto (Ангола) (186 км)
Погода в N`dalatando (Ангола) (191 км)
Погода в Uige (Ангола) (241 км)
Погода в Sumbe (Ангола) (269 км)
Погода в M`banza-Kongo (Ангола) (309 км)
Погода в Soyo (Ангола) (317 км)
Погода в Malanje (Ангола) (353 км)
Погода в Cabinda (Ангола) (386 км)
Погода в Benguela (Ангола) (414 км)
Погода в Pointe-Noire (Конго) (473 км)

Пояснения к столбцам:

Ветер - указаны скорость ветра в м/с - средняя за 10 мин, порывы в срок и между сроками (в фигурных скобках) и направление, откуда дует ветер: С - северный, СВ - северо-восточный, В - восточный, ЮВ - юго-восточный, Ю - южный, ЮЗ - юго-западный, З - западный, СЗ - северо-западный.
Видимость - горизонтальная дальность видимости в метрах или километрах. При видимости от 1 до 10 км при отсутствии осадков обычно наблюдается дымка, при ухудшении видимости до 1 км и менее - туман. В сухую погоду видимость может ухудшаться дымом, пылью или мглою.
Явления - указаны атмосферные явления, наблюдавшиеся в срок или в последний час перед сроком; фигурными скобками обозначены явления, наблюдавшиеся между сроками (за 1-3 часа до срока); квадратными скобками обозначены град или гололедные отложения с указанием их диаметра в мм.
Облачность - указаны через наклонную черту общая и нижняя облачность в баллах и высота нижней границы облаков в метрах; квадратными скобками обозначены формы облаков: Ci - перистые, Cs - перисто-слоистые, Cc - перисто-кучевые, Ac - высококучевые, As - высокослоистые, Sc - слоисто-кучевые, Ns - слоисто-дождевые, Cu - кучевые, Cb - кучево-дождевые. Подробнее классификацию облаков см. в Атласе облаков (PDF).
T - Температура воздуха - температура, измеренная на высоте 2 м над землей.
Td - Температура точки росы - температура, при понижении до которой содержащийся в воздухе водяной пар достигнет насыщения.
f - Относительная влажность воздуха - влажноcть воздуха, измеренная на высоте 2 м над землей.
Te - Эффективная температура - температура, которую ощущает одетый по сезону человек в тени. Характеристика душности погоды. При расчете учитывается влияние влажности воздуха и скорости ветра на теплоощущения человека.
Tes - Эффективная температура на солнце - температура, которую ощущает человек, с поправкой на солнечный нагрев. Характеристика знойности погоды. Зависит от высоты солнца над горизонтом, облачности и скорости ветра. Ночью, в пасмурную погоду, а также при ветре 12 м/с и более поправка равна нулю.
P - Атмосферное давление - приведенное к уровню моря атмосферное давление.
Po - Атмосферное давление - измеренное на уровне метеостанции атмосферное давление.
Tmin - Минимальная температура - минимум температуры воздуха на высоте 2 м над землей.
Tmax - Максимальная температура - максимум температуры воздуха на высоте 2 м над землей.
R - Количество осадков - Количество выпавших осадков за период времени, мм. При наведении курсора мыши на число - период времени, за который выпало указанное количество осадков.
R24 - Количество осадков - Количество выпавших осадков за 24 часа, мм.
S - Снежный покров - Высота снежного покрова, см. При наведении курсора мыши на число - состояние снежного покрова и степень покрытия местности в баллах.